Location: Ladrillo (historical)
(32.8195°N, 117.2231°W)
Time: 03:09:29
(UTC+00:00)

CZ-4B R/B - Pass Details

Date: 29 October 2020
Orbit: 489 x 649 km, 97.9° (Epoch: 26 November)

Event Time Altitude Azimuth Distance (km) Brightness Sun altitude
Rises 12:26:35 0° 21° (NNE) 2,794 6.7 -21.1°
Reaches altitude 10° 12:28:49 10° 29° (NNE) 1,917 5.9 -20.7°
Maximum altitude 12:32:44 39° 99° (E) 913 4.5 -19.8°
Drops below altitude 10° 12:36:48 10° 169° (S) 1,988 5.8 -19.0°
Sets 12:39:08 0° 177° (S) 2,909 6.6 -18.5°
